Location: Melbourne
(37.8666°S, 145.1333°E)
Time: 01:32:14
(UTC+11:00)

Daily predictions for brighter satellites

Satellite Brightness Start Highest point End
(mag) Time Altitude Azimuth Time Altitude Azimuth Time Altitude Azimuth
Cosmos 2322 Rocket 2.2 00:01:06 10° SSW 00:06:48 71° ESE 00:06:53 71° ESE
Cosmos 1953 4.0 00:07:16 28° WSW 00:07:16 28° WSW 00:10:28 10° SSW
SPOT 1/Viking Rocket 4.2 00:03:09 10° S 00:08:10 48° WSW 00:08:57 44° W
Cosmos 1842 Rocket 4.4 00:10:15 49° SSE 00:10:15 49° SSE 00:13:34 10° S
Cosmos 2360 Rocket 3.6 00:04:41 10° S 00:09:36 28° ESE 00:10:38 27° ESE
Cosmos 1980 Rocket 3.0 00:04:37 10° SW 00:09:55 39° WNW 00:10:02 39° WNW
Terra 2.2 00:06:37 10° SSE 00:10:38 61° SSE 00:10:38 61° SSE
USA 238 DEB 3.8 00:07:00 10° SW 00:14:00 60° WNW 00:14:42 57° NW
USA 238 3.8 00:07:06 10° SW 00:14:06 60° WNW 00:14:48 58° NW
CZ-4C R/B 3.8 00:12:35 10° WSW 00:16:08 21° W 00:16:08 21° W
Cosmos 1743 Rocket 4.4 00:12:14 10° SSW 00:15:37 48° SW 00:15:37 48° SW
Cosmos 1741 Rocket 4.5 00:22:54 53° WSW 00:23:06 53° WSW 00:28:17 10° S
Cosmos 2034 Rocket 3.9 00:25:40 78° NE 00:25:54 80° E 00:32:20 10° S
SeaSat 1 2.7 00:27:17 64° SW 00:27:17 64° SW 00:31:33 10° SSW
Cosmos 2058 4.5 00:24:01 10° S 00:26:38 32° SSE 00:26:38 32° SSE
ATLAS 3B R/B 4.0 00:24:13 10° SW 00:30:12 28° WNW 00:30:52 27° WNW
SL-16 R/B 2.3 00:27:50 10° SSW 00:33:08 69° WSW 00:33:08 69° WSW
RESURS DK-1 4.3 00:36:39 25° SE 00:36:39 25° SE 00:38:32 10° SSE
COSMOS 2455 3.3 00:29:10 10° SW 00:34:33 49° W 00:34:33 49° W
Nadezhda 4 Rocket 4.1 00:31:10 10° S 00:37:26 61° E 00:37:37 61° E
Iridium 4 Rocket 3.9 00:34:22 10° S 00:38:13 56° SW 00:38:13 56° SW
Helios 1A Rocket 4.5 00:42:30 33° SSE 00:42:30 33° SSE 00:45:06 10° S
NOSS 3-2 (C) 3.3 00:39:56 10° SSW 00:46:31 86° ESE 00:46:34 86° ESE
CZ-2C R/B 3.2 00:49:29 51° W 00:49:29 51° W 00:54:39 10° SSW
Cosmos 1634 Rocket 4.5 00:51:28 47° E 00:51:28 47° E 00:57:23 10° SSE
USA 215 4.1 00:55:37 21° E 00:59:48 46° SE 01:06:04 10° SW
Meteor 1-11 4.4 00:58:08 10° SSW 01:03:30 65° WSW 01:03:30 65° WSW
Cosmos 2219 Rocket 4.2 01:02:10 10° S 01:06:28 21° SE 01:08:51 17° E
Sich 1 4.4 01:05:43 10° S 01:08:36 37° SSE 01:08:36 37° SSE
NOSS 3-2 (A) 4.0 01:06:21 10° SW 01:11:31 44° W 01:11:31 44° W
MOS 1-B Rocket 4.3 01:04:57 10° S 01:12:47 74° WSW 01:13:49 64° NW
H-2A R/B 4.1 01:12:23 10° SSW 01:16:14 20° WSW 01:17:45 18° W
Cosmos 724 4.3 01:12:33 10° SSW 01:17:57 77° S 01:17:57 77° S
Cosmos 2333 Rocket 4.2 01:15:01 10° S 01:19:28 22° SE 01:22:25 15° E
Cosmos 2221 4.1 01:24:50 30° SW 01:24:50 30° SW 01:27:37 10° S
Cosmos 2322 3.9 01:18:56 10° SSW 01:23:58 67° SW 01:23:58 67° SW
Cosmos 2228 Rocket 4.1 01:39:58 45° S 01:39:58 45° S 01:43:06 10° S
ALOS 2 3.6 01:34:21 10° SSE 01:37:29 45° SSE 01:37:29 45° SSE
Cosmos 332 Rocket 4.5 01:35:16 10° S 01:39:35 51° SE 01:39:35 51° SE
Cosmos 2142 Rocket 4.5 01:40:56 74° WNW 01:41:12 75° W 01:47:42 10° S
Cosmos 1633 Rocket 4.3 01:41:16 10° SSW 01:44:04 37° SSW 01:44:04 37° SSW
Terra 4.4 01:47:36 10° SW 01:48:28 10° WSW 01:49:20 10° WSW
Cosmos 2322 Rocket 4.4 01:47:18 10° WSW 01:48:41 13° W 01:48:41 13° W
COSMOS 2428 2.7 01:45:41 10° SSW 01:51:11 82° SSW 01:51:11 82° SSW
Cosmos 2360 Rocket 3.2 01:48:24 10° SW 01:52:23 34° WSW 01:52:23 34° WSW
Cosmos 1763 Rocket 4.2 01:52:29 10° SSW 01:56:23 45° WSW 01:56:23 45° WSW
IRS-P3 4.1 02:04:08 79° ESE 02:04:08 79° ESE 02:09:29 10° S
Cosmos 1503 Rocket 4.3 02:04:27 59° SW 02:04:27 59° SW 02:09:26 10° S
Cosmos 1470 Rocket 4.5 01:59:58 10° S 02:03:06 46° SSW 02:03:06 46° SSW
CENTAUR R/B 2.1 02:00:48 10° SSW 02:06:54 90° ESE 02:06:55 89° NE
Cosmos 841 Rocket 4.3 02:05:21 10° SSW 02:09:10 42° WSW 02:09:10 42° WSW
Lacrosse 5 2.9 02:06:03 10° SSW 02:11:00 45° SE 02:13:27 26° E
Cosmos 2237 Rocket 3.1 02:08:27 10° S 02:13:57 45° ESE 02:16:02 32° ENE
NOSS 0 Rocket 4.2 02:09:46 10° SSW 02:15:59 65° ESE 02:17:43 46° NE
NPP 3.5 02:16:21 88° E 02:16:22 88° E 02:21:52 10° SSW
BREEZE-M DEB (TANK) 3.9 02:10:21 10° SW 02:18:39 53° SSE 02:19:25 44° ESE
Cosmos 2219 4.2 02:18:17 34° WSW 02:19:01 36° WSW 02:24:16 10° S
Cosmos 1726 3.6 02:23:54 36° S 02:23:54 36° S 02:26:16 10° S
CZ-4B R/B 3.8 02:26:18 10° S 02:27:30 20° SSW 02:27:30 20° SSW
ADEOS 4.0 02:30:49 50° ENE 02:31:49 59° ESE 02:37:01 10° S
Cosmos 2082 3.6 02:32:29 74° NNE 02:32:52 79° ENE 02:38:37 10° SSE
Cosmos 371 Rocket 3.8 02:28:01 10° SSW 02:31:57 51° WSW 02:31:57 51° WSW
Cosmos 2297 Rocket 2.2 02:35:11 64° NE 02:35:38 67° ENE 02:41:18 10° SSE
Cosmos 1455 4.0 02:36:35 25° E 02:36:35 25° E 02:39:29 10° SSE
Cosmos 2227 Rocket 2.0 02:39:09 74° NW 02:39:39 83° WSW 02:45:26 10° SSE
CZ-2C R/B 3.4 02:35:13 10° S 02:40:49 58° WSW 02:41:16 56° W
USA 215 3.4 02:42:54 51° WNW 02:42:54 51° WNW 02:49:06 10° SW
ERBS 4.2 02:45:03 29° ESE 02:45:03 29° ESE 02:47:02 10° SE
Cosmos 1300 4.1 02:45:21 33° SW 02:45:21 33° SW 02:47:55 10° S
Resurs 1-4 Rocket 2.7 02:45:34 36° NE 02:47:26 55° ESE 02:52:39 10° S
Cosmos 540 Rocket 3.7 02:42:21 10° SSW 02:46:53 55° WSW 02:46:53 55° WSW
Cosmos 2266 Rocket 3.9 02:41:20 10° S 02:47:44 87° W 02:49:10 57° N
Cosmos 1980 3.6 02:42:32 10° SSW 02:48:16 87° WNW 02:49:13 64° NNE
Cosmos 2219 Rocket 2.4 02:45:13 10° SSW 02:50:32 54° W 02:50:32 54° W
USA 81 4.3 03:00:06 49° NNE 03:01:23 67° E 03:06:41 10° S
Aureole 2 Rocket 4.2 02:59:04 10° S 03:02:20 29° ESE 03:03:06 26° E
OTV 4 3.4 03:06:00 12° E 03:06:00 12° E 03:06:16 10° E
CZ-2D R/B 2.1 03:02:10 46° NNE 03:03:46 77° ESE 03:09:03 10° S
Cosmos 2333 Rocket 2.3 02:58:26 10° SSW 03:04:04 54° WNW 03:04:22 53° WNW
ERS-1 4.4 03:09:49 61° NW 03:10:11 63° W 03:15:15 10° SSW
IRS-1D 3.5 03:11:55 54° N 03:13:08 78° WNW 03:18:35 10° SSW
ARIANE 5 R/B 2.5 03:14:44 55° NNW 03:15:47 72° WNW 03:21:03 10° SSW
Cosmos 1244 Rocket 4.5 03:17:17 10° S 03:23:43 85° E 03:27:08 30° N
Cosmos 1777 Rocket 3.9 03:23:19 52° NNW 03:24:37 85° WSW 03:29:56 10° SSE
Cosmos 304 Rocket 3.7 03:21:17 10° SSW 03:26:05 64° WNW 03:26:46 56° NNW
Cosmos 1818 4.3 03:25:31 32° NNE 03:27:23 43° ENE 03:32:28 10° SE
Aureole 1 Rocket 3.4 03:21:32 10° SSW 03:27:38 87° WNW 03:29:26 40° NNE
SL-16 R/B 2.3 03:22:00 10° SSW 03:27:46 79° ESE 03:32:28 16° NNE
S3M 4.4 03:24:52 26° NNE 03:28:34 64° E 03:34:56 10° SSE
ATLAS 5 CENTAUR R/B 4.2 03:19:09 27° NNW 03:31:11 86° NE 03:36:49 10° SE
Cosmos 1869 Rocket 4.5 03:29:04 10° SSW 03:32:49 33° W 03:32:49 33° W
Hubble Space Telescope 2.9 03:35:20 15° NE 03:35:20 15° NE 03:36:27 10° NE
SEDSat Delta rocket 4.4 03:35:41 35° N 03:35:41 35° N 03:41:13 10° NE
Cosmos 1862 Rocket 3.8 03:34:48 38° NNE 03:36:23 67° E 03:40:54 10° SSE
Atlas Centaur 2 4.1 03:42:32 22° N 03:42:32 22° N 03:46:55 10° NNE
Cosmos 2242 Rocket 3.8 03:39:57 48° WNW 03:40:43 55° W 03:45:08 10° S
Okean O Rocket 2.8 03:41:34 10° NE 03:45:48 42° ESE 03:50:03 10° S
Cosmos 1892 3.8 03:42:58 10° SSW 03:46:01 30° WSW 03:46:01 30° WSW
Cosmos 1862 4.0 03:47:04 10° S 03:51:09 54° E 03:54:15 16° NNE
Cosmos 1825 2.6 03:48:25 10° S 03:52:17 62° E 03:54:36 22° NNE
ATLAS CENTAUR R/B 1.6 03:51:37 41° W 03:52:18 47° SW 03:56:05 10° SSE
Lacrosse 5 3.0 03:49:23 10° WSW 03:52:29 25° W 03:52:29 25° W
ERS-2 2.1 03:55:02 29° NNE 03:56:53 85° ESE 04:00:39 10° SSW
Cosmos 2237 Rocket 3.4 03:53:14 10° SW 03:57:39 23° W 03:57:48 23° WNW
MOS 1-B 4.4 03:55:43 23° N 03:59:23 62° WNW 04:05:11 10° SSW
OAO 1 Rocket 4.5 03:56:26 25° W 03:59:33 62° N 04:04:52 10° ENE
ADEOS Rocket 3.6 03:52:12 10° NNE 03:59:42 85° ESE 04:07:37 10° SSW
Cosmos 1408 2.5 03:57:42 10° S 04:01:26 84° E 04:03:19 27° N
Cosmos 44 Rocket 3.4 03:58:35 10° SSW 04:03:38 86° ESE 04:08:46 10° NNE
Cosmos 1869 4.2 04:06:06 29° WNW 04:06:56 32° WSW 04:10:38 10° SSW
Cosmos 1733 Rocket 3.2 04:02:43 10° SSW 04:07:07 54° W 04:09:08 29° NNW
PSLV R/B 3.9 04:06:02 15° NNE 04:09:14 84° E 04:13:24 10° S
BREEZE-M R/B 3.9 04:08:55 10° WSW 04:11:47 80° NNW 04:22:54 10° NE
Cosmos 1455 4.0 04:11:36 17° W 04:11:58 17° WSW 04:14:34 10° SSW
OAO 3 Rocket 4.2 04:12:42 25° NNW 04:12:42 25° NNW 04:16:26 10° NNE
Cosmos 292 Rocket 3.8 04:10:11 10° SSW 04:15:08 89° WNW 04:20:01 10° NNE
Cosmos 2227 4.2 04:13:16 24° NNW 04:16:49 74° WSW 04:22:37 10° SSE
CZ-4B R/B 3.2 04:13:13 10° NNE 04:17:15 72° ESE 04:21:35 10° S
CZ-2D R/B 4.1 04:15:58 28° NW 04:17:23 36° W 04:21:15 10° SSW
UNKNOWN OBJECT B 3.8 04:17:50 26° WNW 04:18:22 26° W 04:21:47 10° SW
Cosmos 2297 Rocket 4.1 04:16:59 12° W 04:20:13 18° SW 04:24:00 10° S
GP-B 3.9 04:16:27 10° SSE 04:20:52 51° E 04:25:14 10° NNE
Cosmos 2221 Rocket 4.0 04:17:05 13° N 04:21:03 65° E 04:25:36 10° SSE
Cosmos 2227 Rocket 4.4 04:22:16 10° WSW 04:24:38 12° SW 04:27:00 10° SSW
Cosmos 1603 3.8 04:19:30 10° SSW 04:25:21 86° ESE 04:31:07 10° NNE
Resurs 1-4 Rocket 3.6 04:26:39 16° WNW 04:27:35 17° W 04:30:59 10° SW
PAYLOAD B 4.2 04:24:47 10° N 04:30:19 70° WNW 04:35:54 10° SSW
Cosmos 1782 Rocket 3.9 04:28:59 10° S 04:33:31 71° E 04:38:00 10° NNE
Meteor 2-10 Rocket 4.0 04:29:05 10° N 04:34:15 62° E 04:39:19 10° SSE
Cosmos 1933 4.1 04:32:43 21° NW 04:34:51 37° WSW 04:38:40 10° S
SL-16 R/B 3.0 04:29:06 10° SSE 04:35:22 61° ENE 04:41:32 10° N
Cosmos 1386 Rocket 4.5 04:32:45 10° SSW 04:38:45 61° W 04:44:40 10° N
Cosmos 1908 Rocket 3.7 04:35:12 10° SSW 04:39:34 55° W 04:43:54 10° N
OTV 4 0.3 04:37:37 18° W 04:39:44 84° N 04:42:47 10° E
CZ-2D R/B 4.0 04:43:29 11° W 04:44:22 11° W 04:45:57 10° WSW
Sich 1 Rocket 4.1 04:40:19 10° SSW 04:44:43 43° W 04:49:05 10° NNW
CZ-4B DEB 4.3 04:40:10 10° N 04:45:33 58° W 04:51:00 10° SSW
IRS-1C Rocket 4.5 04:41:01 10° N 04:46:02 44° W 04:51:09 10° SSW
Cosmos 2263 Rocket 2.7 04:42:58 10° N 04:48:32 60° ENE 04:54:06 10° SSE
USA 229 DEB 3.7 04:42:02 10° SW 04:49:08 82° WNW 04:56:03 10° NNE
USA 229 3.7 04:42:08 10° SW 04:49:14 83° WNW 04:56:10 10° NNE
Cosmos 1709 Rocket 4.0 04:44:08 10° S 04:50:22 83° W 04:56:29 10° N
Cosmos 1943 3.8 04:45:43 10° SSW 04:51:22 64° ESE 04:56:56 10° NNE
UNK 3.8 04:47:41 10° SSE 04:52:27 90° SW 04:57:10 10° NNW
SL-08 R/B 4.3 04:49:29 10° S 04:53:48 32° WSW 04:57:34 12° NW
Cosmos 2315 Rocket 4.1 04:48:31 10° NNW 04:54:53 74° W 05:01:22 10° S
CZ-4B R/B 3.5 04:50:13 10° N 04:55:15 43° W 05:00:21 10° SSW
ADEOS II 2.1 04:51:26 10° N 04:56:41 70° WNW 05:02:01 10° SSW
Meteor PRIRODA 4.0 04:54:26 10° NNE 04:58:12 73° ESE 05:02:02 10° S
USA 234 4.3 04:54:02 10° ESE 05:00:12 40° NE 05:06:18 10° NNW
Meteor 1-14 Rocket 4.4 04:54:37 10° SSW 05:00:40 77° W 05:06:32 10° N
Cosmos 2150 Rocket 4.1 04:56:38 10° NNW 05:01:49 62° WSW 05:07:00 10° SSE
PSLV R/B 3.8 05:00:29 10° N 05:04:48 53° W 05:09:10 10° SSW
Feng Yun 1-1 Rocket 4.2 05:02:13 10° NNE 05:07:37 81° WNW 05:13:09 10° SSW
Cosmos 1606 4.1 05:05:23 10° NNE 05:08:58 40° E 05:12:36 10° SSE
Cosmos 44 3.8 05:05:01 10° SW 05:09:49 42° WNW 05:14:47 10° N
SL-16 R/B 4.0 05:08:51 10° WSW 05:11:04 12° W 05:13:17 10° WNW
Okean 1-7 3.7 05:09:24 10° NNW 05:13:34 40° W 05:17:46 10° S
Hubble Space Telescope 2.4 05:10:53 10° NW 05:13:53 19° N 05:16:54 10° NE
Meteor 1-25 Rocket 4.3 05:13:09 10° S 05:18:58 81° W 05:24:47 10° N
